KJ6EI Weather Reports


Display with metric or nautical units.
time (UTC)temp
F
wind
direction
speed
MPH
gust
MPH
rain 1hr
in
rain 24hr
in
rain mn
in
humidity
%
barometer
mb
20260504173058 69 122 0.0 2.0 0.00 0.00 0.00 58 1009.3
20260504171553 67 121 0.0 2.0 0.00 0.00 0.00 58 1009.4
20260504100117 54 119 1.0 3.0 0.00 0.00 0.00 82 1008.5
20260504081548 55 132 1.0 3.0 0.00 0.00 0.00 81 1008.1
20260504044535 61 222 0.0 0.0 0.00 0.00 0.00 71 1008.1
20260504043039 62 222 0.0 0.0 0.00 0.00 0.00 69 1008.2
20260504041527 63 222 0.0 0.0 0.00 0.00 0.00 68 1008.2
20260504040027 63 222 0.0 0.0 0.00 0.00 0.00 70 1008.1
20260504034526 64 222 0.0 0.0 0.00 0.00 0.00 66 1008.1
20260504033027 66 222 0.0 0.0 0.00 0.00 0.00 58 1008.0
20260504031526 67 222 0.0 0.0 0.00 0.00 0.00 57 1008.1
20260504030025 68 222 0.0 0.0 0.00 0.00 0.00 55 1008.1
20260504024525 69 222 0.0 0.0 0.00 0.00 0.00 55 1008.1
20260504023024 70 222 0.0 0.0 0.00 0.00 0.00 53 1008.2
20260504021523 71 222 0.0 0.0 0.00 0.00 0.00 50 1008.2
20260504020020 72 222 0.0 0.0 0.00 0.00 0.00 46 1008.4
20260504014518 72 222 0.0 0.0 0.00 0.00 0.00 49 1008.6
20260504013020 73 222 0.0 0.0 0.00 0.00 0.00 48 1008.6
20260504011516 75 222 0.0 0.0 0.00 0.00 0.00 40 1008.7
20260504010014 75 222 0.0 0.0 0.00 0.00 0.00 41 1009.0
20260504004518 74 222 0.0 0.0 0.00 0.00 0.00 47 1009.2
20260504003010 76 222 0.0 0.0 0.00 0.00 0.00 41 1009.4
20260504001509 78 222 0.0 0.0 0.00 0.00 0.00 43 1009.6
20260504000006 79 222 0.0 0.0 0.00 0.00 0.00 39 1009.8
20260503234509 81 222 0.0 0.0 0.00 0.00 0.00 35 1009.9
20260503233005 82 222 0.0 0.0 0.00 0.00 0.00 32 1010.0
20260503231502 82 222 0.0 0.0 0.00 0.00 0.00 32 1010.2
20260503230117 82 222 0.0 2.0 0.00 0.00 0.00 31 1010.3
20260503224604 82 222 1.0 2.0 0.00 0.00 0.00 34 1010.5
20260503223056 83 222 1.0 5.0 0.00 0.00 0.00 35 1010.7
20260503221556 82 249 0.0 2.0 0.00 0.00 0.00 36 1011.0
20260503220053 82 249 0.0 2.0 0.00 0.00 0.00 37 1011.1
20260503214551 80 221 0.0 4.0 0.00 0.00 0.00 37 1011.3
20260503213100 80 268 0.0 2.0 0.00 0.00 0.00 37 1011.3
20260503211607 79 315 1.0 3.0 0.00 0.00 0.00 38 1011.5
20260503210049 79 261 1.0 2.0 0.00 0.00 0.00 40 1011.7
20260503204545 79 261 1.0 3.0 0.00 0.00 0.00 41 1012.0
20260503203049 79 248 1.0 4.0 0.00 0.00 0.00 40 1012.1
20260503201542 81 267 0.0 3.0 0.00 0.00 0.00 38 1012.4
20260503200053 78 269 1.0 6.0 0.00 0.00 0.00 40 1012.5
20260503194534 78 309 1.0 6.0 0.00 0.00 0.00 43 1012.8
20260503193035 73 210 4.0 8.0 0.00 0.00 0.00 50 1012.9
20260503191528 73 252 4.0 7.0 0.00 0.00 0.00 50 1012.9
20260503190030 76 237 1.0 4.0 0.00 0.00 0.00 44 1013.0
20260503184528 75 263 1.0 4.0 0.00 0.00 0.00 45 1013.1
20260503183019 75 288 1.0 4.0 0.00 0.00 0.00 45 1013.4
20260503181515 73 272 1.0 3.0 0.00 0.00 0.00 53 1013.4
20260503180012 72 286 1.0 3.0 0.00 0.00 0.00 53 1013.5
20260503174514 70 286 1.0 2.0 0.00 0.00 0.00 55 1013.6